[[{"header":{"parameterUnit":"m.s-1","parameterCategory":1,"la1":30.2991,"la2":30.254,"lo1":-89.0895,"lo2":-89.0444,"dy":0.0017,"dx":0.0017,"nx":28,"ny":28,"refTime":"2023-08-19T09:00:00:Z","depth":0,"parameterNumber":2,"parameterNumberName":"U-component_of_WINDS"},"data":[0,0,0,0,0,0,0,0,0,0,0,0,0,0,0,0,0,0,0,0,0,0,0,0,0,0,0,0,0,0,0,0,0,0,0,0,0,0,0,0,0,0,0,0,0,0,0,0,0,0,0,0,0,0,0,0,0,0,4.2791,4.2792,0,4.2952,4.2954,4.2956,4.2929,4.2926,4.2924,4.2921,4.3086,4.3093,4.31,0,0,0,0,0,0,0,0,0,0,0,0,0,4.2457,4.2463,4.279,4.2793,4.2795,4.2952,4.2954,4.2957,4.293,4.2926,4.2923,4.292,4.3084,4.3092,4.3101,0,0,0,0,0,0,0,0,0,0,0,0,0,4.2608,4.2465,4.279,4.28,4.2803,4.2952,4.2954,4.2957,4.293,4.2926,4.2922,4.2918,4.3081,4.3091,4.3102,4.3251,0,0,4.3134,4.3138,0,0,0,0,0,0,0,0,4.26,4.2621,4.2797,4.28,4.2803,4.2916,4.2897,4.3056,4.2931,4.2882,4.2921,4.2916,4.3033,4.3047,4.3087,4.3259,4.3266,4.3135,4.3141,4.3146,4.3149,0,0,0,0,0,0,0,4.2589,4.2614,4.2855,4.2799,4.2803,4.2796,4.2813,4.2927,4.2979,4.2886,4.2884,4.2904,4.3034,4.3077,4.3091,4.3268,4.3135,4.3144,4.315,4.3155,4.3569,4.3573,0,0,0,0,0,0,4.2576,4.2605,4.2849,4.2859,4.2689,4.2806,4.2824,4.2884,4.2978,4.2988,4.2907,4.2902,4.3061,4.3078,4.3096,4.3275,4.3146,4.3156,4.3162,4.3564,4.357,4.3575,0,0,0,0,0,0,4.2569,4.2598,4.2843,4.2732,4.2763,4.2816,4.2883,4.289,4.2932,4.2994,4.3003,4.2942,4.3058,4.3081,4.3212,4.3281,4.316,4.317,4.3559,4.3566,4.3572,4.3636,0,0,0,0,0,0,4.256,4.2596,4.2653,4.2733,4.2769,4.2957,4.2887,4.2896,4.2951,4.2945,4.3029,4.3038,4.3057,4.3197,4.3223,4.3293,4.3178,4.3553,4.3562,4.357,4.3628,4.3644,4.3658,0,0,0,0,0,4.2548,4.2665,4.2656,4.2686,4.2842,4.2961,4.2981,4.3,4.2956,4.3014,4.3054,4.3036,4.327,4.321,4.3239,4.3314,4.3548,4.3559,4.3569,4.3621,4.3641,4.3658,0,0,0,0,0,0,4.2592,4.2676,4.2667,4.2814,4.288,4.2956,4.303,4.3021,4.3101,4.3092,4.3112,4.3131,4.3264,4.3302,4.3235,4.3463,4.3403,4.342,4.3432,4.3452,4.3467,4.3454,4.3187,0,0,0,0,0,4.2619,4.2709,4.2777,4.29,4.2934,4.2976,4.3029,4.3038,4.3107,4.3135,4.3184,4.3252,4.3341,4.3399,4.3484,4.3634,4.3651,4.37,4.3715,4.3727,4.3741,4.3821,4.3843,4.361,4.3609,4.3609,0,0,4.2675,4.2732,4.2787,4.291,4.2963,4.3055,4.3,4.31,4.3168,4.315,4.3276,4.3315,4.3392,4.3533,4.3597,4.3569,4.3809,4.374,4.375,4.3757,4.3834,4.3856,4.3876,4.3617,4.3615,4.3614,0,0,4.2824,4.2877,4.2984,4.3038,4.3118,4.3145,4.3171,4.3248,4.3273,4.34,4.3388,4.3469,4.3622,4.3677,4.3725,4.3894,4.388,4.3922,4.4,4.4078,4.4096,4.4113,4.4171,4.4192,4.3935,4.3936,4.3936,0,4.2883,4.3022,4.304,4.3141,4.3195,4.3183,4.3291,4.3343,4.3447,4.3484,4.3451,4.3641,4.3693,4.3845,4.3886,4.3926,4.3955,4.3911,4.4092,4.4109,4.4125,4.418,4.4203,4.394,4.3939,4.3939,4.3939,0,4.309,4.3186,4.3263,4.3363,4.3426,4.353,4.3564,4.3625,4.3629,4.3659,4.3788,4.3849,4.3945,4.3983,4.3987,4.4136,4.4115,4.4088,4.4028,4.4151,4.4203,4.4225,4.3946,4.3945,4.3943,4.3942,0,0,4.327,4.3379,4.3407,4.3451,4.3539,4.3613,4.3717,4.3811,4.3862,4.3935,4.402,4.415,4.4124,4.4179,4.4189,4.4258,4.4386,4.4222,4.4224,4.4248,4.4551,4.457,4.4594,4.4378,4.4382,4.4385,4.4544,0,4.3426,4.3608,4.3628,4.379,4.3878,4.3868,4.3958,4.4021,4.4052,4.4131,4.4166,4.4256,4.4217,4.4249,4.4317,4.4356,4.4447,4.4345,4.4457,4.446,4.4435,4.4622,4.4643,4.4789,4.4565,4.4568,4.4571,0,4.3632,4.3709,4.388,4.3954,4.3992,4.4072,4.4159,4.4235,4.4306,4.4324,4.4385,4.4386,4.4492,4.4429,4.4574,4.4504,4.4551,4.4577,4.4584,4.4593,4.4521,4.4634,4.4836,4.4857,4.4604,4.4601,4.4599,0,4.3743,4.3891,4.4011,4.405,4.414,4.4196,4.4236,4.4303,4.4358,4.4435,4.447,4.4558,4.4606,4.4674,4.4698,4.4651,4.4842,4.4781,4.4858,4.4857,4.4897,4.4894,4.5107,4.4931,4.4931,4.493,4.493,0,4.3914,4.4018,4.4062,4.4137,4.4253,4.4275,4.4389,4.4427,4.4486,4.4566,4.4564,4.464,4.4669,4.4749,4.477,4.4885,4.4907,4.4924,4.4927,4.4923,4.492,4.4952,4.4942,4.4936,4.4935,4.4934,4.4933,0,4.4057,4.4092,4.4222,4.4297,4.4318,4.44,4.4463,4.4534,4.4564,4.4666,4.4692,4.4739,4.4833,4.4865,4.498,4.4993,4.5127,4.5124,4.5103,4.5103,4.5177,4.5169,4.5416,4.5449,4.5254,4.5256,4.5257,0,4.4163,4.4243,4.4326,4.4379,4.4421,4.4508,4.4564,4.4588,4.4646,4.4733,4.4793,4.4887,4.4962,4.5113,4.5157,4.5245,4.5241,4.5322,4.5254,4.5247,4.524,4.5234,4.5241,4.5334,4.5336,4.5338,4.5339,0,4.4346,4.4359,4.4439,4.4526,4.4593,4.4662,4.4729,4.4773,4.4807,4.4873,4.4969,4.5027,4.5144,4.5236,4.5325,4.5365,4.5358,4.536,4.5382,4.5377,4.5361,4.5368,4.5135,4.5354,4.5353,4.5352,4.5351,4.535,4.4473,4.4542,4.4611,4.4701,4.4753,4.4816,4.4886,4.4925,4.5005,4.5101,4.5111,4.5214,4.5282,4.54,4.5445,4.5525,4.5503,4.5535,4.5543,4.555,4.5554,4.535,4.5542,4.5542,4.5541,4.5541,4.5541,0,4.4653,4.4697,4.4779,4.4873,4.4943,4.493,4.5003,4.5063,4.5153,4.5217,4.5292,4.5401,4.5491,4.5542,4.5631,4.5685,4.5684,4.5708,4.5703,4.5712,4.5571,4.5542,4.5707,4.5707,4.5707,4.5707,4.5707,4.5707,4.4756,4.4873,4.4893,4.5036,4.5079,4.5179,4.5222,4.5279,4.533,4.5452,4.5526,4.5559,4.5618,4.5711,4.5792,4.5804,4.5836,4.5862,4.5872,4.5739,4.5722,4.5705,4.5678,4.5869,4.587,4.6006,4.6007,4.6008]},{"header":{"parameterUnit":"m.s-1","parameterCategory":1,"la1":30.2991,"la2":30.254,"lo1":-89.0895,"lo2":-89.0444,"dy":0.0017,"dx":0.0017,"nx":28,"ny":28,"refTime":"2023-08-19T09:00:00:Z","depth":0,"parameterNumber":3,"parameterNumberName":"V-component_of_WINDS"},"data":[0,0,0,0,0,0,0,0,0,0,0,0,0,0,0,0,0,0,0,0,0,0,0,0,0,0,0,0,0,0,0,0,0,0,0,0,0,0,0,0,0,0,0,0,0,0,0,0,0,0,0,0,0,0,0,0,0,0,1.1957,1.1958,0,1.2005,1.2005,1.2006,1.2008,1.2007,1.2007,1.2006,1.2053,1.2054,1.2056,0,0,0,0,0,0,0,0,0,0,0,0,0,1.1864,1.1866,1.1957,1.1958,1.1958,1.2005,1.2005,1.2006,1.2008,1.2007,1.2006,1.2006,1.2052,1.2054,1.2056,0,0,0,0,0,0,0,0,0,0,0,0,0,1.1908,1.1867,1.1957,1.1965,1.1966,1.2005,1.2005,1.2006,1.2008,1.2007,1.2006,1.2005,1.2051,1.2054,1.2056,1.209,0,0,1.2065,1.2066,0,0,0,0,0,0,0,0,1.1905,1.1911,1.1963,1.1964,1.1966,1.2,1.199,1.2034,1.2008,1.1992,1.2006,1.2005,1.2035,1.2039,1.205,1.2092,1.2094,1.2065,1.2066,1.2068,1.2068,0,0,0,0,0,0,0,1.1902,1.1909,1.1976,1.1964,1.1965,1.1965,1.197,1.1998,1.2018,1.1993,1.1994,1.1999,1.2036,1.2048,1.2051,1.2095,1.2065,1.2067,1.2069,1.207,1.2165,1.2166,0,0,0,0,0,0,1.1898,1.1906,1.1974,1.1977,1.1933,1.1967,1.1973,1.1989,1.2018,1.2021,1.2,1.1999,1.2043,1.2048,1.2053,1.2093,1.2067,1.207,1.2072,1.2164,1.2165,1.2166,0,0,0,0,0,0,1.1896,1.1904,1.1972,1.1942,1.1951,1.197,1.1988,1.1991,1.2002,1.2023,1.2026,1.2008,1.2043,1.2049,1.208,1.2095,1.2071,1.2074,1.2163,1.2164,1.2166,1.2174,0,0,0,0,0,0,1.1893,1.1903,1.1917,1.1942,1.1952,1.2,1.1989,1.1992,1.2007,1.2007,1.2031,1.2035,1.2043,1.2077,1.2083,1.2098,1.2076,1.2162,1.2164,1.2165,1.2172,1.2175,1.2178,0,0,0,0,0,1.189,1.1917,1.1918,1.1926,1.197,1.2001,1.2007,1.2016,1.2008,1.2022,1.2034,1.2034,1.2092,1.208,1.2087,1.2103,1.2161,1.2163,1.2165,1.2171,1.2175,1.2178,0,0,0,0,0,0,1.1892,1.1921,1.1922,1.1958,1.1977,1.2001,1.2018,1.202,1.2041,1.204,1.205,1.2055,1.2086,1.2098,1.2084,1.2136,1.2125,1.2129,1.2128,1.2131,1.2134,1.213,1.2078,0,0,0,0,0,1.1897,1.1921,1.1944,1.1974,1.1983,1.1999,1.2013,1.2019,1.2039,1.2047,1.2062,1.2081,1.2103,1.2118,1.214,1.2174,1.2179,1.2188,1.2191,1.2193,1.2196,1.2214,1.2219,1.2173,1.2173,1.2173,0,0,1.1907,1.1925,1.194,1.1974,1.199,1.2014,1.2006,1.2031,1.2049,1.2051,1.2081,1.2093,1.2114,1.2147,1.2162,1.2158,1.221,1.2196,1.2198,1.22,1.2217,1.2221,1.2225,1.2175,1.2174,1.2174,0,0,1.1937,1.1954,1.198,1.1996,1.202,1.203,1.2036,1.206,1.2068,1.2099,1.2101,1.2121,1.216,1.2175,1.2188,1.2223,1.2222,1.2229,1.2244,1.2261,1.2265,1.2268,1.228,1.2284,1.2232,1.2232,1.2232,0,1.1946,1.1982,1.1993,1.2018,1.2033,1.2037,1.2062,1.2077,1.2107,1.2116,1.2111,1.2159,1.2174,1.221,1.2218,1.2229,1.2235,1.2227,1.2264,1.2267,1.227,1.2281,1.2286,1.2233,1.2233,1.2233,1.2233,0,1.1992,1.2017,1.2035,1.2064,1.2081,1.2107,1.212,1.2136,1.214,1.215,1.2181,1.2199,1.2224,1.2233,1.2237,1.2269,1.2265,1.2262,1.2251,1.2275,1.2286,1.229,1.2234,1.2234,1.2234,1.2233,0,0,1.2024,1.2059,1.2065,1.2078,1.2105,1.2124,1.2149,1.2175,1.2187,1.2207,1.2228,1.226,1.2257,1.2271,1.2277,1.2292,1.2318,1.2286,1.2287,1.2291,1.2353,1.2356,1.2361,1.2318,1.2319,1.232,1.2351,0,1.2057,1.2103,1.2113,1.2152,1.2175,1.2178,1.22,1.2218,1.2228,1.2248,1.2259,1.2282,1.2276,1.2284,1.23,1.2312,1.233,1.2309,1.2336,1.2337,1.233,1.2367,1.2369,1.2399,1.2356,1.2356,1.2357,0,1.2101,1.2123,1.2164,1.2187,1.2197,1.2217,1.224,1.226,1.228,1.2286,1.2302,1.2306,1.2331,1.2319,1.2353,1.2339,1.235,1.2358,1.2359,1.2361,1.2348,1.2369,1.2408,1.2412,1.2364,1.2363,1.2363,0,1.212,1.2159,1.2189,1.22,1.2228,1.2241,1.2253,1.2273,1.2287,1.2307,1.2316,1.2339,1.2351,1.2368,1.2378,1.2368,1.2411,1.24,1.2416,1.2415,1.2424,1.2423,1.2465,1.2432,1.2432,1.2432,1.2432,0,1.2155,1.218,1.2198,1.2216,1.2244,1.2255,1.2282,1.2293,1.2311,1.233,1.2334,1.2352,1.2364,1.2384,1.2391,1.2417,1.2423,1.2428,1.243,1.2428,1.2427,1.2435,1.2433,1.2433,1.2433,1.2433,1.2433,0,1.218,1.2194,1.2226,1.225,1.2256,1.2276,1.2296,1.2313,1.2323,1.2348,1.2354,1.237,1.2393,1.2405,1.2433,1.2438,1.2468,1.2468,1.2461,1.2462,1.2477,1.2475,1.2524,1.2531,1.2494,1.2495,1.2495,0,1.2201,1.2221,1.2247,1.2261,1.2273,1.2296,1.231,1.2321,1.2336,1.236,1.2374,1.2398,1.2417,1.2454,1.2467,1.2489,1.2489,1.2505,1.2493,1.249,1.2489,1.2487,1.2489,1.2507,1.2508,1.2508,1.2508,0,1.2237,1.2243,1.2265,1.2289,1.2306,1.2325,1.2344,1.2355,1.2369,1.2385,1.2409,1.2424,1.2454,1.2476,1.2499,1.251,1.2511,1.2512,1.2517,1.2515,1.2509,1.2512,1.2467,1.2511,1.2511,1.251,1.251,1.251,1.2261,1.2278,1.2299,1.2323,1.2338,1.2355,1.2373,1.2385,1.2406,1.2431,1.2436,1.2461,1.248,1.251,1.2522,1.2541,1.2538,1.2544,1.2546,1.2547,1.2548,1.2507,1.2545,1.2545,1.2545,1.2545,1.2545,0,1.2296,1.231,1.2332,1.2358,1.2376,1.2377,1.2397,1.2412,1.2435,1.2453,1.2472,1.2499,1.2521,1.2536,1.2558,1.2571,1.2572,1.2576,1.2575,1.2577,1.255,1.2544,1.2575,1.2575,1.2575,1.2575,1.2575,1.2575,1.2317,1.2346,1.2354,1.239,1.2403,1.2429,1.244,1.2456,1.247,1.2501,1.2519,1.2529,1.2546,1.2569,1.2589,1.2592,1.26,1.2604,1.2608,1.2582,1.2579,1.2576,1.257,1.2606,1.2606,1.2633,1.2633,1.2633]}]]